Location: �chenoz-la-M�line
(47.6009°N, 6.1354°E)
Time: 16:45:59
(UTC+00:00)

NOAA 12 - Pass Details

Date: 27 January 2021
Orbit: 796 x 814 km, 98.5° (Epoch: 03 March)

Event Time Altitude Azimuth Distance (km) Brightness Sun altitude
Rises 05:56:33 0° 15° (NNE) 3,330 7.3 -12.1°
Reaches altitude 10° 05:58:54 10° 17° (NNE) 2,398 6.6 -11.7°
Maximum altitude 06:04:12 78° 103° (ESE) 832 4.3 -10.9°
Drops below altitude 10° 06:09:31 10° 191° (S) 2,392 6.6 -10.0°
Sets 06:11:51 0° 192° (SSW) 3,321 7.4 -9.6°
